| time (UTC) | temp F | wind direction | speed knots | gust knots | rain 1hr in | rain 24hr in | rain mn in | humidity % | barometer mb |
| 20260507202538 | 62 | 149 | 0.9 | 1.7 | 0.00 | 0.00 | 0.00 | 81 | 1017.4 |
| 20260507201531 | 62 | 0.0 | 0.0 | 0.00 | 0.00 | 0.00 | 81 | 1017.4 | |
| 20260507200540 | 62 | 0.0 | 0.0 | 0.00 | 0.00 | 0.00 | 80 | 1017.3 | |
| 20260507195530 | 63 | 0.0 | 0.9 | 0.00 | 0.00 | 0.00 | 78 | 1017.4 | |
| 20260507194525 | 63 | 125 | 0.9 | 1.7 | 0.00 | 0.00 | 0.00 | 77 | 1017.4 |
| 20260507193547 | 63 | 0.0 | 0.0 | 0.00 | 0.00 | 0.00 | 78 | 1017.3 | |
| 20260507192538 | 63 | 139 | 0.0 | 0.9 | 0.00 | 0.00 | 0.00 | 77 | 1017.2 |
| 20260507191531 | 64 | 119 | 0.9 | 2.6 | 0.00 | 0.00 | 0.00 | 75 | 1017.1 |
| 20260507190522 | 64 | 114 | 0.9 | 2.6 | 0.00 | 0.00 | 0.00 | 76 | 1017.0 |
| 20260507185550 | 64 | 143 | 0.0 | 0.9 | 0.00 | 0.00 | 0.00 | 76 | 1017.0 |
| 20260507184541 | 64 | 124 | 0.0 | 0.9 | 0.00 | 0.00 | 0.00 | 76 | 1016.9 |
| 20260507183548 | 65 | 114 | 0.0 | 0.9 | 0.00 | 0.00 | 0.00 | 76 | 1016.7 |
| 20260507182540 | 65 | 132 | 0.9 | 1.7 | 0.00 | 0.00 | 0.00 | 75 | 1016.8 |
| 20260507181547 | 66 | 133 | 0.9 | 2.6 | 0.00 | 0.00 | 0.00 | 75 | 1016.7 |
| 20260507180539 | 66 | 120 | 1.7 | 3.5 | 0.00 | 0.00 | 0.00 | 74 | 1016.4 |
| 20260507175531 | 67 | 131 | 0.9 | 6.1 | 0.00 | 0.00 | 0.00 | 73 | 1016.3 |
| 20260507174543 | 67 | 116 | 1.7 | 7.8 | 0.00 | 0.00 | 0.00 | 74 | 1016.3 |
| 20260507173518 | 67 | 103 | 3.5 | 7.0 | 0.00 | 0.00 | 0.00 | 75 | 1016.2 |
| 20260507172539 | 67 | 103 | 3.5 | 8.7 | 0.00 | 0.00 | 0.00 | 77 | 1016.2 |
| 20260507171531 | 67 | 103 | 2.6 | 7.8 | 0.00 | 0.00 | 0.00 | 77 | 1016.2 |
| 20260507170524 | 67 | 105 | 1.7 | 7.8 | 0.00 | 0.00 | 0.00 | 79 | 1016.1 |
| 20260507165549 | 68 | 99 | 2.6 | 8.7 | 0.00 | 0.00 | 0.00 | 77 | 1016.2 |
| 20260507164619 | 68 | 111 | 3.5 | 7.0 | 0.00 | 0.00 | 0.00 | 75 | 1016.2 |
| 20260507163531 | 68 | 107 | 2.6 | 7.0 | 0.00 | 0.00 | 0.00 | 72 | 1016.1 |
| 20260507162522 | 68 | 101 | 2.6 | 6.1 | 0.00 | 0.00 | 0.00 | 67 | 1016.2 |
| 20260507161547 | 68 | 65 | 2.6 | 8.7 | 0.00 | 0.00 | 0.00 | 64 | 1016.3 |
| 20260507160522 | 68 | 59 | 2.6 | 7.0 | 0.00 | 0.00 | 0.00 | 59 | 1016.2 |
| 20260507155547 | 69 | 78 | 1.7 | 7.0 | 0.00 | 0.00 | 0.00 | 59 | 1016.3 |
| 20260507154539 | 68 | 89 | 2.6 | 7.0 | 0.00 | 0.00 | 0.00 | 60 | 1016.4 |
| 20260507153531 | 68 | 53 | 4.3 | 9.6 | 0.00 | 0.00 | 0.00 | 60 | 1016.4 |
| 20260507152522 | 68 | 61 | 3.5 | 7.8 | 0.00 | 0.00 | 0.00 | 57 | 1016.4 |
| 20260507151547 | 69 | 83 | 2.6 | 11.3 | 0.00 | 0.00 | 0.00 | 53 | 1016.4 |
| 20260507150539 | 69 | 83 | 2.6 | 7.8 | 0.00 | 0.00 | 0.00 | 51 | 1016.3 |
| 20260507145532 | 69 | 64 | 4.3 | 9.6 | 0.00 | 0.00 | 0.00 | 51 | 1016.4 |
| 20260507144522 | 68 | 65 | 3.5 | 8.7 | 0.00 | 0.00 | 0.00 | 55 | 1016.4 |
| 20260507143548 | 69 | 54 | 3.5 | 7.0 | 0.00 | 0.00 | 0.00 | 61 | 1016.5 |
| 20260507142538 | 68 | 55 | 2.6 | 7.8 | 0.00 | 0.00 | 0.00 | 58 | 1016.6 |
| 20260507141531 | 69 | 60 | 3.5 | 9.6 | 0.00 | 0.00 | 0.00 | 55 | 1016.5 |
| 20260507140524 | 69 | 46 | 4.3 | 9.6 | 0.00 | 0.00 | 0.00 | 56 | 1016.6 |
| 20260507135547 | 68 | 86 | 3.5 | 7.8 | 0.00 | 0.00 | 0.00 | 58 | 1016.5 |
| 20260507134538 | 68 | 54 | 3.5 | 7.8 | 0.00 | 0.00 | 0.00 | 55 | 1016.6 |
| 20260507133531 | 68 | 43 | 3.5 | 7.8 | 0.00 | 0.00 | 0.00 | 57 | 1016.6 |
| 20260507132522 | 69 | 41 | 3.5 | 9.6 | 0.00 | 0.00 | 0.00 | 56 | 1016.5 |
| 20260507131547 | 69 | 52 | 3.5 | 9.6 | 0.00 | 0.00 | 0.00 | 57 | 1016.6 |
| 20260507130540 | 68 | 24 | 5.2 | 9.6 | 0.00 | 0.00 | 0.00 | 60 | 1016.7 |
| 20260507125531 | 69 | 31 | 4.3 | 8.7 | 0.00 | 0.00 | 0.00 | 58 | 1016.5 |
| 20260507124524 | 68 | 24 | 5.2 | 11.3 | 0.00 | 0.00 | 0.00 | 59 | 1016.5 |
| 20260507123546 | 68 | 29 | 5.2 | 11.3 | 0.00 | 0.00 | 0.00 | 59 | 1016.6 |
| 20260507122538 | 69 | 31 | 4.3 | 8.7 | 0.00 | 0.00 | 0.00 | 56 | 1016.7 |
| 20260507121530 | 70 | 43 | 3.5 | 8.7 | 0.00 | 0.00 | 0.00 | 54 | 1016.6 |
| 20260507120602 | 70 | 50 | 3.5 | 7.8 | 0.00 | 0.00 | 0.00 | 51 | 1016.7 |
| 20260507115546 | 69 | 53 | 3.5 | 7.0 | 0.00 | 0.00 | 0.00 | 51 | 1016.7 |
| 20260507114538 | 68 | 53 | 3.5 | 11.3 | 0.00 | 0.00 | 0.00 | 54 | 1016.8 |
| 20260507113531 | 68 | 35 | 4.3 | 9.6 | 0.00 | 0.00 | 0.00 | 53 | 1016.8 |
| 20260507112523 | 68 | 55 | 4.3 | 7.8 | 0.00 | 0.00 | 0.00 | 56 | 1016.9 |
| 20260507111546 | 68 | 27 | 6.1 | 8.7 | 0.00 | 0.00 | 0.00 | 54 | 1016.9 |
| 20260507110538 | 68 | 52 | 3.5 | 8.7 | 0.00 | 0.00 | 0.00 | 55 | 1016.9 |
| 20260507105546 | 69 | 43 | 3.5 | 11.3 | 0.00 | 0.00 | 0.00 | 58 | 1017.0 |
| 20260507104538 | 69 | 17 | 3.5 | 8.7 | 0.00 | 0.00 | 0.00 | 54 | 1016.9 |
| 20260507103532 | 69 | 33 | 5.2 | 9.6 | 0.00 | 0.00 | 0.00 | 57 | 1016.9 |
| 20260507102543 | 69 | 28 | 5.2 | 11.3 | 0.00 | 0.00 | 0.00 | 56 | 1017.0 |
| 20260507101547 | 70 | 332 | 3.5 | 7.0 | 0.00 | 0.00 | 0.00 | 54 | 1016.8 |
| 20260507100559 | 69 | 41 | 3.5 | 6.1 | 0.00 | 0.00 | 0.00 | 55 | 1016.9 |
| 20260507095531 | 69 | 343 | 3.5 | 7.8 | 0.00 | 0.00 | 0.00 | 55 | 1017.0 |
| 20260507094523 | 69 | 24 | 3.5 | 7.0 | 0.00 | 0.00 | 0.00 | 56 | 1017.0 |
| 20260507093547 | 68 | 346 | 4.3 | 7.8 | 0.00 | 0.00 | 0.00 | 57 | 1017.0 |
| 20260507092600 | 68 | 352 | 2.6 | 6.1 | 0.00 | 0.00 | 0.00 | 58 | 1016.9 |
| 20260507091530 | 68 | 19 | 3.5 | 7.0 | 0.00 | 0.00 | 0.00 | 59 | 1016.9 |
| 20260507090524 | 68 | 20 | 2.6 | 7.8 | 0.00 | 0.00 | 0.00 | 60 | 1016.9 |
| 20260507085547 | 67 | 41 | 2.6 | 7.0 | 0.00 | 0.00 | 0.00 | 61 | 1016.9 |
| 20260507084558 | 67 | 10 | 3.5 | 8.7 | 0.00 | 0.00 | 0.00 | 64 | 1016.9 |
| 20260507083552 | 67 | 22 | 4.3 | 7.8 | 0.00 | 0.00 | 0.00 | 66 | 1016.8 |
| 20260507082522 | 67 | 20 | 3.5 | 7.8 | 0.00 | 0.00 | 0.00 | 68 | 1016.6 |
| 20260507081546 | 69 | 36 | 2.6 | 7.0 | 0.00 | 0.00 | 0.00 | 56 | 1016.4 |
| 20260507080539 | 71 | 157 | 0.9 | 2.6 | 0.00 | 0.00 | 0.00 | 53 | 1016.3 |
| 20260507075552 | 70 | 179 | 1.7 | 3.5 | 0.00 | 0.00 | 0.00 | 56 | 1016.3 |
| 20260507074523 | 70 | 203 | 0.9 | 3.5 | 0.00 | 0.00 | 0.00 | 56 | 1016.3 |
| 20260507073547 | 69 | 238 | 1.7 | 3.5 | 0.00 | 0.00 | 0.00 | 57 | 1016.3 |
| 20260507071531 | 69 | 50 | 0.9 | 3.5 | 0.00 | 0.01 | 0.00 | 61 | 1016.4 |
| 20260507070524 | 69 | 113 | 0.9 | 1.7 | 0.00 | 0.01 | 0.00 | 62 | 1016.4 |
| 20260507065531 | 68 | 126 | 0.9 | 2.6 | 0.00 | 0.01 | 0.00 | 65 | 1016.3 |
| 20260507064523 | 67 | 86 | 0.9 | 1.7 | 0.00 | 0.01 | 0.00 | 69 | 1016.3 |
| 20260507063546 | 65 | 106 | 0.9 | 2.6 | 0.00 | 0.01 | 0.00 | 73 | 1016.4 |
| 20260507062538 | 63 | 89 | 0.9 | 2.6 | 0.00 | 0.01 | 0.00 | 77 | 1016.4 |
| 20260507061532 | 64 | 51 | 1.7 | 2.6 | 0.00 | 0.01 | 0.00 | 77 | 1016.4 |
| 20260507060523 | 64 | 132 | 0.0 | 0.9 | 0.00 | 0.01 | 0.00 | 77 | 1016.3 |
| 20260507055546 | 63 | 97 | 0.0 | 2.6 | 0.00 | 0.01 | 0.00 | 81 | 1016.3 |
| 20260507054538 | 61 | 122 | 0.9 | 1.7 | 0.00 | 0.01 | 0.00 | 84 | 1016.1 |
| 20260507053530 | 59 | 186 | 1.7 | 3.5 | 0.00 | 0.01 | 0.00 | 88 | 1016.0 |
| 20260507052522 | 59 | 181 | 0.0 | 1.7 | 0.00 | 0.01 | 0.00 | 88 | 1016.0 |
| 20260507051606 | 59 | 0.0 | 0.0 | 0.00 | 0.01 | 0.00 | 88 | 1015.9 | |
| 20260507050539 | 59 | 0.0 | 0.0 | 0.00 | 0.01 | 0.00 | 88 | 1016.0 | |
| 20260507045517 | 60 | 91 | 0.0 | 0.9 | 0.00 | 0.01 | 0.00 | 88 | 1015.6 |
| 20260507044524 | 60 | 187 | 0.9 | 0.9 | 0.00 | 0.02 | 0.00 | 88 | 1015.5 |
| 20260507043606 | 60 | 125 | 0.0 | 0.9 | 0.00 | 0.03 | 0.00 | 88 | 1015.3 |
| 20260507042538 | 60 | 130 | 0.9 | 2.6 | 0.00 | 0.04 | 0.00 | 88 | 1015.3 |
| 20260507041547 | 59 | 130 | 0.9 | 2.6 | 0.00 | 0.05 | 0.00 | 88 | 1015.3 |
| 20260507040600 | 59 | 135 | 0.9 | 2.6 | 0.00 | 0.05 | 0.00 | 88 | 1015.1 |
| 20260507035530 | 59 | 113 | 0.9 | 1.7 | 0.00 | 0.05 | 0.00 | 87 | 1015.1 |
| 20260507034522 | 59 | 118 | 0.9 | 2.6 | 0.00 | 0.05 | 0.00 | 86 | 1015.0 |
| 20260507033547 | 59 | 127 | 0.9 | 3.5 | 0.00 | 0.05 | 0.00 | 89 | 1015.0 |
| 20260507032538 | 59 | 115 | 0.9 | 1.7 | 0.00 | 0.05 | 0.00 | 89 | 1015.1 |
| 20260507031531 | 59 | 117 | 0.9 | 2.6 | 0.00 | 0.05 | 0.00 | 88 | 1015.1 |
| 20260507030522 | 59 | 135 | 0.9 | 2.6 | 0.00 | 0.05 | 0.00 | 88 | 1015.1 |
| 20260507025546 | 59 | 0.0 | 0.0 | 0.00 | 0.05 | 0.00 | 87 | 1015.0 | |
| 20260507024539 | 60 | 0.0 | 0.0 | 0.00 | 0.05 | 0.00 | 86 | 1015.0 | |
| 20260507023530 | 60 | 0.0 | 0.0 | 0.00 | 0.05 | 0.00 | 86 | 1014.9 | |
| 20260507022524 | 60 | 0.0 | 0.0 | 0.00 | 0.05 | 0.00 | 86 | 1014.9 | |
| 20260507021530 | 60 | 114 | 0.0 | 0.9 | 0.00 | 0.05 | 0.00 | 85 | 1015.0 |
| 20260507020538 | 61 | 104 | 0.0 | 0.9 | 0.00 | 0.05 | 0.00 | 85 | 1015.0 |
| 20260507015551 | 61 | 120 | 0.0 | 0.9 | 0.00 | 0.05 | 0.00 | 85 | 1015.0 |
| 20260507014542 | 61 | 0.0 | 0.0 | 0.00 | 0.05 | 0.00 | 84 | 1014.9 | |
| 20260507013547 | 61 | 108 | 0.0 | 0.9 | 0.00 | 0.05 | 0.00 | 84 | 1014.9 |
| 20260507012522 | 61 | 134 | 0.9 | 1.7 | 0.00 | 0.05 | 0.00 | 83 | 1015.0 |
| 20260507011547 | 62 | 0.0 | 0.0 | 0.00 | 0.05 | 0.00 | 82 | 1015.0 | |
| 20260507010539 | 62 | 89 | 0.9 | 2.6 | 0.00 | 0.05 | 0.00 | 82 | 1015.0 |
| 20260507005531 | 62 | 98 | 0.9 | 1.7 | 0.00 | 0.05 | 0.00 | 79 | 1015.0 |
| 20260507004523 | 63 | 0.0 | 0.0 | 0.00 | 0.05 | 0.00 | 78 | 1015.0 | |
| 20260507003548 | 63 | 103 | 0.0 | 0.9 | 0.00 | 0.05 | 0.00 | 77 | 1014.9 |
| 20260507002538 | 63 | 0.0 | 0.9 | 0.00 | 0.05 | 0.00 | 77 | 1015.1 | |
| 20260507001530 | 63 | 74 | 0.0 | 1.7 | 0.00 | 0.05 | 0.00 | 77 | 1015.1 |
| 20260507000522 | 64 | 309 | 0.0 | 1.7 | 0.00 | 0.05 | 0.00 | 75 | 1015.2 |
| 20260506235547 | 64 | 194 | 0.9 | 2.6 | 0.00 | 0.05 | 0.00 | 73 | 1015.1 |
| 20260506234540 | 65 | 151 | 0.9 | 2.6 | 0.00 | 0.05 | 0.00 | 71 | 1014.9 |
| 20260506233530 | 64 | 168 | 0.9 | 1.7 | 0.00 | 0.05 | 0.00 | 72 | 1014.9 |
| 20260506232522 | 64 | 184 | 1.7 | 2.6 | 0.00 | 0.05 | 0.00 | 73 | 1014.9 |
| 20260506231607 | 64 | 160 | 0.9 | 5.2 | 0.00 | 0.05 | 0.00 | 74 | 1014.6 |
| 20260506230539 | 65 | 150 | 1.7 | 6.1 | 0.00 | 0.05 | 0.00 | 72 | 1014.8 |
| 20260506225532 | 65 | 156 | 2.6 | 7.0 | 0.00 | 0.05 | 0.00 | 72 | 1014.8 |
| 20260506224542 | 65 | 158 | 2.6 | 5.2 | 0.00 | 0.05 | 0.00 | 73 | 1014.9 |
| 20260506223546 | 64 | 175 | 3.5 | 7.8 | 0.00 | 0.05 | 0.00 | 73 | 1014.8 |
| 20260506222540 | 64 | 162 | 2.6 | 7.8 | 0.00 | 0.05 | 0.00 | 74 | 1014.9 |
| 20260506221531 | 64 | 147 | 1.7 | 6.1 | 0.00 | 0.05 | 0.00 | 74 | 1015.0 |
| 20260506220544 | 64 | 150 | 1.7 | 3.5 | 0.00 | 0.05 | 0.00 | 75 | 1014.9 |
| 20260506215532 | 63 | 150 | 1.7 | 6.1 | 0.00 | 0.05 | 0.05 | 76 | 1015.0 |
| 20260506214522 | 62 | 138 | 0.9 | 2.6 | 0.00 | 0.05 | 0.05 | 80 | 1015.0 |
| 20260506213546 | 63 | 133 | 1.7 | 3.5 | 0.00 | 0.05 | 0.05 | 81 | 1014.9 |
| 20260506212639 | 63 | 118 | 1.7 | 2.6 | 0.00 | 0.05 | 0.05 | 79 | 1015.0 |
| 20260506211530 | 63 | 115 | 0.9 | 2.6 | 0.00 | 0.07 | 0.05 | 80 | 1015.0 |
| 20260506210522 | 63 | 123 | 0.0 | 0.9 | 0.00 | 0.07 | 0.05 | 81 | 1015.0 |
| 20260506205547 | 64 | 153 | 0.9 | 0.9 | 0.00 | 0.09 | 0.05 | 79 | 1015.1 |
| 20260506204539 | 64 | 126 | 0.0 | 1.7 | 0.00 | 0.13 | 0.05 | 78 | 1015.0 |
| 20260506203530 | 64 | 129 | 0.9 | 1.7 | 0.00 | 0.16 | 0.05 | 77 | 1014.9 |